Helicity
0 6 9 25 33 36 28 32 37 43 51 57 64 72 81 79 69 22 55 54 43 129 122 129 133 122 108 101 91 103 120 35 28 19 41 21 187 148 120 139 116 121 82 63 129
5 8 23 32 30 31 27 37 40 40 42 47 54 65 78 84 44 68 44 15 64 71 105 123 166 234 118 98 116 130 111 19 20 23 117 94 166 165 142 135 125 171 172 154 175
11 23 32 30 25 30 41 44 43 43 38 38 47 60 81 80 6 34 101 111 139 40 90 119 172 233 164 129 139 113 102 16 53 63 59 97 79 107 140 89 87 114 168 209 186
10 28 35 29 25 32 41 40 33 30 33 37 42 47 76 13 89 21 159 371 216 86 94 139 170 222 173 166 124 146 119 77 114 70 78 43 119 105 99 99 105 143 200 216 200
17 34 28 25 21 19 12 8 7 10 21 35 45 55 0 43 68 3 57 204 233 132 105 124 161 198 199 151 160 149 106 145 172 131 106 69 140 99 89 107 148 125 201 206 155
18 36 30 23 17 17 -3 -8 -10 -8 -1 13 31 50 4 44 65 72 179 185 175 126 106 117 191 127 151 137 170 121 97 137 197 202 197 161 157 109 107 90 129 121 129 151 115
14 30 33 17 6 10 2 -4 -6 -3 -4 9 23 33 18 115 98 83 116 182 229 195 148 79 61 188 156 147 114 170 165 209 204 156 227 163 216 126 89 112 106 82 88 114 75
4 16 20 5 11 8 8 0 4 13 18 27 39 71 40 88 76 91 106 158 180 182 195 80 88 147 163 113 217 218 230 218 218 185 225 207 222 310 218 102 54 40 37 95 85
-4 2 1 -9 -10 -32 -45 -56 -29 4 2 32 64 100 11 41 206 164 62 60 174 215 210 101 148 165 189 229 271 243 229 211 214 184 202 213 261 285 263 303 240 54 54 99 127
-12 -16 -22 -38 -61 -98 -77 32 44 23 52 59 52 57 33 85 164 201 86 29 138 160 173 201 249 277 258 304 294 296 247 187 149 137 196 181 172 198 233 173 163 53 69 113 198
-17 -25 -38 -74 -78 -33 24 30 39 58 151 135 124 122 55 25 93 91 25 44 111 145 186 253 284 253 240 262 173 119 111 128 164 156 191 132 83 66 84 142 159 226 22 99 124
-23 -45 -47 -63 -26 16 45 39 65 104 104 104 140 128 191 191 68 167 17 76 111 150 142 179 166 147 130 84 53 38 102 202 249 193 152 74 47 49 46 94 145 194 163 122 196
12 -45 -55 -59 -21 31 89 50 66 74 96 53 98 125 111 77 125 159 34 63 71 103 102 144 99 63 63 42 41 18 97 152 133 153 135 90 54 37 55 122 140 198 171 113 170
53 -4 -43 -59 7 41 85 90 86 106 48 75 74 46 38 76 76 13 46 61 80 43 58 53 3 34 19 31 27 105 99 112 139 164 91 71 38 41 94 174 266 236 143 97 93
36 36 -10 -13 38 41 70 85 74 57 67 44 80 52 15 33 39 20 -4 76 102 89 64 59 66 59 56 70 127 101 118 143 85 114 132 104 91 47 140 217 211 188 88 62 79
28 24 23 -2 73 103 65 88 69 40 59 31 31 41 22 29 1 -14 3 19 86 95 57 42 67 75 125 103 119 125 214 252 162 135 148 41 141 92 90 176 207 153 90 102 133
25 10 42 20 42 43 33 80 36 80 108 74 12 16 28 16 9 -20 15 55 113 83 47 130 97 70 130 155 191 139 193 184 188 173 80 71 137 72 150 180 152 130 117 140 163
17 26 37 68 104 54 52 62 40 133 155 139 -77 -8 -20 31 28 9 -15 75 74 57 73 36 78 99 81 88 94 120 133 142 149 115 99 112 111 62 147 181 159 141 125 149 187
12 49 21 6 35 58 39 44 75 99 153 133 88 -89 -29 15 33 107 13 20 31 40 54 52 50 74 84 115 112 102 60 63 93 89 115 93 131 162 160 168 178 128 118 127 168
45 42 24 44 63 25 39 50 60 78 153 160 182 125 21 17 17 66 48 38 17 22 42 42 59 63 23 32 50 61 63 93 108 74 88 79 141 113 104 132 119 127 119 125 157
48 53 31 76 49 28 59 33 32 92 93 137 166 231 145 36 1 27 36 9 6 42 38 20 31 55 52 46 43 80 93 99 96 102 104 128 118 74 95 106 118 93 112 130 161
50 57 21 67 46 13 44 19 39 72 76 65 78 65 158 81 -2 14 -4 19 24 28 59 43 42 34 36 62 75 71 59 79 90 98 93 78 67 69 68 93 153 101 144 181 198
74 43 37 80 18 18 -22 11 37 48 24 71 74 41 -10 52 -18 8 12 6 12 38 23 52 44 40 65 61 72 57 56 95 99 102 89 108 77 108 150 202 197 221 218 255 245
86 50 64 85 89 63 35 18 41 46 18 33 45 55 -23 50 -39 7 38 -3 11 8 0 16 47 37 14 21 33 46 47 53 83 87 74 78 81 120 191 234 221 234 222 207 160
77 44 101 55 38 40 105 50 83 34 43 31 6 44 7 3 7 20 40 26 6 12 25 34 43 54 31 42 48 41 33 50 57 73 82 117 102 86 122 130 133 136 185 190 187
-3 78 153 100 51 54 13 21 101 103 -10 27 54 25 18 10 22 14 16 7 19 16 32 45 37 52 22 45 40 35 33 33 36 49 52 98 130 141 76 137 162 184 219 218 353
76 120 113 70 83 74 36 56 119 56 45 64 43 51 36 -8 11 -1 23 45 34 16 18 27 40 49 32 33 38 37 34 57 74 96 104 91 78 117 154 174 167 208 240 405 434
Wind_Speed
57 58 59 62 64 64 60 57 58 61 63 64 67 69 71 74 77 67 66 49 42 54 57 56 51 48 43 39 36 35 42 44 40 37 32 9 12 23 22 19 28 30 28 20 17
56 55 60 63 64 64 59 56 58 61 62 64 67 70 73 75 74 73 60 52 59 58 55 48 49 48 41 39 38 38 44 41 33 41 33 19 13 14 20 19 27 30 28 19 15
53 57 56 62 61 61 59 58 58 60 63 65 68 71 74 74 67 47 34 43 55 55 51 50 53 51 46 41 39 41 47 44 46 41 35 18 18 20 18 24 16 18 17 15 11
53 55 58 58 59 57 57 58 59 61 64 67 69 72 75 59 66 33 47 61 51 40 47 46 48 45 43 47 47 53 47 44 57 40 35 25 17 23 22 27 23 9 11 10 8
52 53 58 55 56 54 56 58 60 62 65 67 70 73 67 67 69 75 79 66 62 41 49 48 49 47 49 43 45 47 54 47 41 33 38 42 22 22 22 21 25 15 11 10 11
48 51 53 52 54 49 49 52 55 58 62 66 70 72 68 94 62 67 71 65 53 41 53 54 49 45 46 50 47 42 50 51 42 36 33 32 23 26 29 17 24 18 13 13 12
45 47 47 51 50 45 39 36 38 43 52 61 67 68 72 89 60 70 75 69 66 52 50 57 59 54 47 45 42 39 36 35 41 39 41 39 35 39 30 21 25 23 20 17 13
43 44 45 52 50 45 29 24 28 33 34 38 44 58 69 57 58 64 69 69 66 60 57 53 56 60 58 38 40 42 40 46 40 31 39 33 33 33 30 31 32 27 26 23 16
38 42 44 49 52 54 49 42 35 30 31 35 39 38 56 53 53 56 61 62 59 60 55 52 55 62 51 45 50 49 53 46 41 39 37 36 37 38 35 43 46 37 29 23 19
36 44 44 50 55 58 51 26 25 35 37 30 27 41 34 56 63 68 40 50 54 55 52 54 53 56 55 54 63 55 53 51 47 39 38 38 44 48 51 50 48 42 32 25 25
36 41 45 46 52 45 53 51 57 52 47 35 26 19 25 43 56 44 27 35 45 50 58 54 56 69 63 56 49 48 51 54 51 39 42 50 57 55 48 50 42 36 31 40 30
37 42 44 43 40 37 44 50 49 42 38 21 0 9 27 25 39 37 27 33 40 52 49 53 70 61 49 51 56 58 54 48 40 33 41 43 49 46 43 44 36 30 26 39 41
40 40 40 42 35 40 47 45 44 46 31 26 26 22 21 26 31 36 16 40 38 45 53 54 58 59 58 54 55 60 55 46 43 37 43 41 55 52 47 35 28 29 28 33 42
36 34 33 41 38 45 46 35 45 37 38 36 36 27 28 27 26 30 31 34 38 45 47 53 58 62 62 63 57 61 43 32 31 27 47 40 56 48 31 28 24 28 36 40 30
32 34 33 40 29 40 39 33 32 37 40 28 31 26 25 23 28 31 33 36 38 36 46 46 49 47 59 51 43 52 36 29 26 38 43 42 51 52 27 28 27 29 34 37 33
27 29 34 38 31 20 19 22 35 39 26 34 26 22 25 21 28 33 37 36 39 42 34 37 46 38 37 39 36 24 25 28 32 40 58 51 46 49 34 26 25 30 35 39 36
21 21 27 27 27 20 13 34 38 43 32 19 18 9 20 23 26 30 37 44 36 35 33 46 33 29 34 28 32 31 31 39 44 47 55 46 39 45 26 22 21 26 32 33 31
15 20 18 15 14 19 36 42 28 49 51 47 29 21 23 22 23 32 32 44 32 34 37 33 39 33 34 40 37 34 36 37 44 43 43 38 41 37 19 20 21 24 26 27 28
14 24 21 18 20 27 36 42 41 44 45 46 64 27 24 27 25 30 35 39 32 31 35 38 33 35 30 30 32 39 42 32 36 37 39 36 36 31 19 18 20 20 23 25 25
32 29 20 19 24 30 33 29 34 40 40 39 49 49 37 29 24 26 32 32 34 34 35 32 31 33 33 28 28 32 28 37 39 45 48 41 40 40 17 13 14 19 21 22 23
33 35 29 29 27 30 32 24 38 30 34 30 27 33 27 22 24 31 30 33 32 36 39 35 32 35 32 39 38 33 34 35 34 37 38 39 40 28 3 5 11 16 17 18 21
38 36 21 25 30 24 13 33 31 32 29 31 25 20 24 27 28 32 31 33 35 36 36 34 32 33 35 34 33 34 36 34 40 41 37 37 43 39 4 3 8 11 15 19 20
37 35 18 21 26 19 23 51 47 31 25 36 29 11 29 31 23 34 34 35 35 33 37 38 37 33 38 39 37 37 32 27 26 30 36 39 37 26 13 9 9 13 15 17 20
37 35 31 19 23 22 21 56 48 39 38 33 30 32 42 13 40 18 23 33 31 34 35 32 35 32 34 31 31 33 29 28 28 33 34 35 25 16 14 14 9 11 12 13 15
32 28 32 29 27 35 39 55 61 61 37 31 40 30 44 45 41 40 34 33 32 32 34 31 32 30 27 29 30 30 25 24 27 25 32 30 32 14 10 9 6 5 10 12 15
30 35 41 42 41 42 44 45 61 62 61 44 33 50 47 49 42 42 39 35 31 29 32 35 34 34 32 34 36 37 34 27 25 28 34 34 36 31 20 9 10 10 12 15 22
38 45 39 41 42 43 37 45 66 57 47 40 46 52 49 48 44 42 38 33 29 30 30 31 32 31 31 33 38 46 32 26 26 26 23 29 26 21 28 24 19 15 17 21 25
Wind_Direction
341 340 337 335 332 329 328 330 328 325 322 319 315 311 307 302 297 296 284 284 282 275 273 273 274 273 276 276 275 283 276 277 283 307 298 283 318 325 350 357 339 339 342 1 92
349 347 342 338 335 332 332 332 328 325 322 320 316 312 308 305 298 288 288 283 274 272 269 270 266 274 269 271 271 268 270 273 293 303 308 285 303 337 334 348 342 346 360 64 82
357 354 350 342 339 336 334 332 330 326 323 321 316 312 308 306 298 289 314 300 283 264 264 264 266 270 260 266 266 268 266 274 281 303 296 284 292 320 331 326 352 1 39 64 55
1 359 352 347 344 342 340 337 333 328 325 321 317 313 308 308 287 290 297 296 292 270 258 259 260 262 261 258 263 264 268 279 282 290 301 281 294 307 320 332 344 27 65 51 44
4 2 355 352 349 347 342 340 336 332 328 324 319 315 312 295 284 278 279 287 282 271 249 249 251 256 257 262 264 264 263 272 293 294 285 289 293 303 319 345 357 24 30 21 2
8 7 4 0 355 357 355 351 347 341 335 329 323 317 306 287 296 283 278 282 281 269 250 246 252 253 263 261 259 270 267 265 282 286 290 295 299 305 317 334 345 5 10 5 359
13 13 13 6 2 5 8 8 3 356 347 338 329 320 303 288 294 284 275 270 267 271 254 245 248 254 259 261 260 267 269 265 272 281 282 294 290 294 317 326 331 342 343 350 1
17 17 17 7 6 7 15 8 2 359 357 354 351 331 307 310 300 284 269 266 261 261 255 246 248 254 257 259 261 257 265 261 272 274 284 283 282 308 319 320 322 333 335 334 345
24 20 20 12 7 3 6 5 0 360 0 359 357 355 314 319 306 292 267 258 257 256 252 247 250 250 253 241 251 253 255 260 268 275 279 280 279 295 307 312 310 325 327 318 323
27 20 21 15 7 5 11 7 12 15 17 18 17 356 348 313 297 289 275 250 250 250 243 242 246 238 241 237 240 250 254 261 265 271 278 277 278 288 294 297 307 319 325 308 300
29 23 20 21 13 24 20 23 20 17 14 16 19 18 239 260 278 273 265 246 246 245 232 237 235 233 238 242 251 256 258 262 268 269 275 280 283 288 296 299 306 308 319 316 302
26 22 20 23 26 28 28 29 26 21 13 21 341 212 226 215 268 260 265 244 242 235 231 237 236 238 239 244 249 253 257 261 271 268 278 285 289 297 295 299 311 311 333 313 316
20 23 26 23 29 31 28 33 30 25 41 51 67 79 135 142 169 239 263 237 244 235 231 238 239 239 242 244 246 250 254 257 267 271 278 286 290 297 301 304 313 327 339 336 320
24 33 36 23 38 30 34 42 26 43 46 53 60 93 116 121 184 228 256 245 247 240 234 243 239 241 241 247 249 249 257 260 258 263 278 278 288 298 308 310 325 328 330 335 349
30 29 37 30 37 32 33 33 40 46 50 56 67 106 132 149 206 231 239 242 246 241 234 242 240 248 240 250 252 251 263 255 258 274 283 284 289 295 309 306 318 332 337 343 342
35 35 31 28 40 58 34 33 47 58 68 53 77 95 128 184 199 228 224 234 236 233 242 245 251 256 250 253 249 244 260 274 281 279 275 281 282 291 295 304 320 333 337 341 341
43 42 36 39 43 41 27 44 54 56 52 64 94 171 133 169 242 218 207 210 220 226 233 235 245 258 247 247 252 257 250 263 268 273 279 295 282 292 306 315 327 339 346 351 5
56 35 47 59 54 49 36 39 65 41 39 40 50 95 116 192 207 235 207 208 248 241 236 239 246 252 253 249 250 249 251 262 269 276 286 293 293 302 316 337 349 354 4 7 12
60 30 30 54 63 55 44 35 42 39 43 49 40 68 128 168 177 222 218 216 243 251 240 249 261 254 263 266 258 252 255 276 283 288 291 295 304 312 323 338 356 6 10 8 10
16 20 36 54 58 44 41 52 47 46 53 54 48 55 114 152 206 233 214 238 239 240 253 256 259 256 256 266 272 266 273 270 280 283 285 295 295 299 298 321 348 358 2 11 13
12 9 36 45 40 19 6 57 24 56 55 62 86 91 142 163 190 214 224 241 257 246 241 254 257 254 264 257 261 273 276 285 291 290 292 297 301 324 333 333 350 1 11 15 14
355 355 68 37 8 16 66 9 19 34 57 61 84 157 115 126 190 202 217 228 260 248 239 262 265 257 264 273 279 281 281 283 281 285 296 302 299 313 298 26 31 26 17 15 16
346 348 28 33 6 6 352 261 276 14 53 36 54 163 257 40 262 228 317 264 266 289 261 264 259 271 267 274 279 279 285 296 302 305 298 297 312 340 4 14 22 15 17 14 13
341 347 350 3 2 3 315 267 270 345 350 19 33 31 311 96 257 234 53 305 284 271 277 281 276 285 276 290 295 287 290 295 301 299 305 310 326 341 353 358 15 7 9 13 15
335 341 339 337 353 352 338 306 257 263 338 355 348 17 338 327 303 314 327 327 311 304 286 292 288 297 306 301 302 306 311 306 300 308 311 322 328 345 348 349 351 26 12 12 356
336 331 321 317 318 325 332 319 293 281 266 316 335 310 312 301 317 314 310 311 316 316 295 283 289 295 306 299 298 298 304 316 318 314 311 320 326 339 347 352 2 8 8 348 349
323 313 316 312 315 314 320 320 295 305 302 311 307 304 313 290 301 296 304 318 315 311 293 288 290 300 305 307 304 291 313 319 323 330 331 324 335 354 349 2 6 2 353 350 346